Location: Newport
(44.6370°N, 124.0520°W)
Time: 12:51:49
(UTC-07:00)

RS-15 - Visible Passes

Search period start: 15 July 2018 00:00
Search period end: 25 July 2018 00:00
Orbit: 1891 x 2154 km, 64.8° (Epoch: 14 July)

Date Brightness Start Highest point End Pass type
(mag) Time Alt. Az. Time Alt. Az. Time Alt. Az.
15 Jul 9.3 01:17:44 16° SE 01:23:29 23° E 01:31:54 10° NE visible
15 Jul 8.1 03:25:29 23° SSW 03:34:13 83° ESE 03:46:01 10° NE visible
16 Jul 9.5 00:43:00 12° ESE 00:48:05 16° E 00:54:30 10° ENE visible
16 Jul 8.2 02:50:44 28° S 02:58:16 68° ESE 03:09:53 10° NE visible
16 Jul 8.7 04:59:54 10° WSW 05:11:26 47° NW 05:22:34 10° NE visible
17 Jul 9.7 00:10:50 10° ESE 00:12:50 11° E 00:14:49 10° E visible
17 Jul 8.4 02:15:58 30° S 02:22:25 55° ESE 02:33:41 10° NE visible
17 Jul 8.5 04:23:43 12° WSW 04:34:58 56° NW 04:46:26 10° NE visible
18 Jul 8.6 01:41:10 29° SSE 01:46:40 43° ESE 01:57:23 10° NE visible
18 Jul 8.3 03:48:54 18° SW 03:58:39 67° NW 04:10:20 10° NE visible
19 Jul 8.9 01:06:20 25° SE 01:11:03 33° ESE 01:20:55 10° NE visible
19 Jul 8.1 03:14:04 25° SW 03:22:26 80° NW 03:34:14 10° NE visible
20 Jul 9.1 00:31:27 20° SE 00:35:31 24° E 00:44:10 10° NE visible
20 Jul 8.1 02:39:11 31° SSW 02:46:21 85° ESE 02:58:09 10° NE visible
20 Jul 9.0 04:49:10 10° W 05:00:15 40° NNW 05:10:56 10° NE visible
20 Jul 9.3 23:56:33 15° ESE 00:00:07 17° E 00:06:54 10° ENE visible
21 Jul 8.1 02:04:17 35° S 02:10:23 70° ESE 02:22:02 10° NE visible
21 Jul 8.8 04:12:10 10° WSW 04:23:39 46° NW 04:34:42 10° NE visible
21 Jul 9.6 23:21:40 10° ESE 23:24:51 11° E 23:27:59 10° ENE visible
22 Jul 8.3 01:29:20 36° S 01:34:31 56° ESE 01:45:51 10° NE visible
22 Jul 8.5 03:37:03 16° WSW 03:47:10 54° NW 03:58:34 10° NE visible
23 Jul 8.5 00:54:21 34° SSE 00:58:46 44° ESE 01:09:33 10° NE visible
23 Jul 8.3 03:02:04 22° SW 03:10:49 65° NW 03:22:28 10° NE visible
23 Jul 9.3 05:15:54 10° WNW 05:26:04 31° NNW 05:35:52 10° NE visible
24 Jul 8.7 00:19:18 29° SE 00:23:07 34° ESE 00:33:08 10° NE visible
24 Jul 8.1 02:27:02 29° SW 02:34:36 78° NW 02:46:23 10° NE visible
24 Jul 9.2 04:38:39 10° W 04:49:13 34° NNW 04:59:24 10° NE visible
